Location: Newark
(25.4800°N, 85.7200°E)
Time: 08:34:48
(UTC+00:00)

Vanguard 1 Rocket - Pass Details

Date: 27 August 2019
Orbit: 651 x 4225 km, 34.3° (Epoch: 24 September)

Event Time Altitude Azimuth Distance (km) Brightness Sun altitude
Rises 02:01:54 0° 283° (WNW) 3,931 10.1 27.5°
Reaches altitude 10° 02:04:16 10° 275° (W) 3,262 9.8 28.1°
Maximum altitude 02:12:02 40° 208° (SSW) 2,550 9.8 29.8°
Drops below altitude 10° 02:26:18 10° 146° (SE) 5,884 12.1 33.0°
Sets 02:32:29 0° 140° (SE) 7,460 12.6 34.4°
